Flag for Germany Weather past 2 weeks in Merzig, Saarland, Germany

Now
46 °F

Drizzle. Low clouds.


Feels Like: 43 °F
Forecast: 46 / 53 °F
Wind: 5 mph from Southwest

Location: Trier-Petrisberg

Current Time: Dec 17, 2014 at 9:17:13 PM

Latest Report: Dec 17, 2014 at 9:00 PM


Visibility: 2 mi

Pressure: 29.88 "Hg

Humidity: 99%

Dew point: 46 °F

Location of MerzigLocation

Historic Weather in Merzig — Graph

°F

Merzig temperature yesterday

Maximum temperature yesterday: 44 °F (at 2:00 PM)
Minimum temperature yesterday: 38 °F (at 10:00 PM)
Average temperature yesterday: 41 °F

Past Weeks' High & Low Weather Summary

 TemperatureHumidityPressure
High48 °F (Dec 12, 9:00 PM)100% (Dec 2, 10:00 PM)30.43 "Hg (Dec 2, 10:00 PM)
Low31 °F (Dec 3, 2:00 AM)76% (Dec 7, 4:00 PM)29.59 "Hg (Dec 12, 5:00 PM)
Average38 °F95%30.05 "Hg
* Reported Dec 2 8:00 PM — Dec 17 8:00 PM, Merzig, Weather by CustomWeather, © 2014

Note: Actual official high and low records may vary slightly from our data, if they occured in-between our weather recording intervals... More about our weather records

Advertising

Merzig weather history for previous 24 hours

 ConditionsComfort  
Time TempWeatherWind HumidityBarometerVisibility
8:00 PM
Dec 17
45 °FLow clouds.5 mph99%29.86 "Hg14 mi
7:00 PM45 °FLow clouds.6 mph99%29.83 "Hg19 mi
6:00 PM44 °FLow clouds.6 mph99%29.81 "Hg19 mi
5:00 PM43 °FFog.6 mph99%29.79 "Hg4 mi
4:00 PM43 °FLow clouds.6 mph99%29.77 "Hg4 mi
3:00 PM42 °FLight rain. Low clouds.8 mph98%29.74 "Hg9 mi
2:00 PM41 °FLight rain. Low clouds.8 mph98%29.74 "Hg2 mi
1:00 PM40 °FRain. Low clouds.10 mph97%29.76 "Hg2 mi
12:00 PM40 °FLight rain. Low clouds.10 mph97%29.78 "Hg3 mi
11:00 AM39 °FLight rain. Low clouds.12 mph96%29.80 "Hg4 mi
10:00 AM38 °FLight rain. Low clouds.9 mph96%29.84 "Hg4 mi
9:00 AM39 °FLight rain. Overcast.9 mph93%29.86 "Hg8 mi
8:00 AM39 °FLight rain. Low clouds.9 mph93%29.87 "Hg6 mi
7:00 AM39 °FLow clouds.7 mph93%29.92 "Hg7 mi
6:00 AM38 °FLow clouds.6 mph94%29.94 "Hg8 mi
5:00 AM38 °FOvercast.5 mph96%29.96 "Hg6 mi
4:00 AM37 °FLow clouds.5 mph97%29.98 "Hg5 mi
3:00 AM37 °FLow clouds.5 mph96%30.01 "Hg7 mi
2:00 AM37 °FPassing clouds.3 mph98%30.02 "Hg6 mi
1:00 AM36 °FPassing clouds.2 mph96%30.03 "Hg6 mi
12:00 AM38 °FOvercast.2 mph92%30.03 "Hg11 mi
11:00 PM
Dec 16
38 °FOvercast.2 mph95%30.03 "Hg8 mi
10:00 PM38 °FOvercast.2 mph94%30.03 "Hg7 mi
9:00 PM39 °FOvercast.3 mph91%30.03 "Hg9 mi
Weather by CustomWeather, © 2014

See weather overviewHow to use our weather pages